LFRVLFRH

Guest
Details From LFRV - Vannes Meucon
To LFRH - Lorient Lann-Bihoue
Flight Number -
Tags generated
Created
Modified
Stats Distance 29 nm / 54 km
Max Altitude 2,400 ft / 732 m
Waypoints 3
Social Downloads 2
Likes 0
Share VATSIM

Download

Looking for another format? Having issues loading an existing format? Contact us
Advertisement - Login to hide

Notes

Basic altitude profile: - Ascent Rate: 2500ft/min - Ascent Speed: 250kts - Cruise Altitude: 35000ft - Cruise Speed: 420kts - Descent Rate: 1500ft/min - Descent Speed: 250kts Options: - Use NATs: yes - Use PACOTS: yes - Use low airways: yes - Use high airways: yes

Route

LFRV DEGEX LFRH

ID Type Via Altitude Latitude Longitude Leg Dist Tot Dist Heading (true) Name
O LFRV APT - 0 ft / 0 m 47.72326˚ -2.71851˚ - 0 nm - Vannes Meucon
DEGEX FIX - 2,400 ft / 732 m 47.74389˚ -3.15667˚ 17 nm 17 nm 274° / 274° -
O LFRH APT - 0 ft / 0 m 47.76247˚ -3.44091˚ 11 nm 29 nm 276° / 275° Lorient Lann-Bihoue

Altitude Profile

Advertisement - Login to hide

LFRV

Details ICAO LFRV (VNE)
Name Vannes Meucon
Region France
Timezone Europe/Paris (UTC+2.0)
Stats Elevation 439 ft / 134 m (AMSL)
Location 47.723264° -2.718513°
Runways 1
Magnetic Variation 0.861° W

METAR

LFRV 241000Z AUTO 01006KT 330V040 9999 FEW018 20/15 Q1017

Decode

TAF

Not found

Departure Runways

ID Width Length Bearing (true) Bearing (mag) Surface Threshold Offset Overrun Length
04 148 ft / 45 m 5,006 ft / 1,526 m 39.13° 39.99° Asphalt 0 ft / 0 m 0 ft / 0 m
22 148 ft / 45 m 5,006 ft / 1,526 m 219.14° 220.00° Asphalt 0 ft / 0 m 0 ft / 0 m

LFRH

Details ICAO LFRH (LRT)
Name Lorient Lann-Bihoue
Region France
Timezone Europe/Paris (UTC+2.0)
Stats Elevation 122 ft / 37 m (AMSL)
Location 47.762466° -3.440907°
Runways 2
Magnetic Variation 1.104° W

METAR

LFRH 241000Z AUTO 04006KT 360V070 9999 FEW014 19/14 Q1018 TEMPO SCT040CB BECMG 25010KT

Decode

TAF

TAF LFRH 240500Z 2406/2506 04010KT 4000 BR NSC BECMG 2406/2408 9999 NSW SCT007 BECMG 2408/2410 CAVOK TEMPO 2410/2418 SCT040CB BECMG 2410/2412 25010KT PROB30 TEMPO 2413/2417 5000 TSRA BKN030CB BECMG 2418/2420 04010KT TEMPO 2502/2506 5000 BR BKN004

Decode

Destination Runways

ID Width Length Bearing (true) Bearing (mag) Surface Threshold Offset Overrun Length
02 148 ft / 45 m 6,895 ft / 2,102 m 16.11° 17.21° Asphalt 0 ft / 0 m 0 ft / 0 m
07 148 ft / 45 m 7,879 ft / 2,401 m 71.70° 72.80° Concrete 0 ft / 0 m 295 ft / 90 m
20 148 ft / 45 m 6,895 ft / 2,102 m 196.12° 197.22° Asphalt 1,411 ft / 430 m 0 ft / 0 m
25 148 ft / 45 m 7,879 ft / 2,401 m 251.72° 252.82° Concrete 568 ft / 173 m 89 ft / 27 m

Approach Navaids

Runway Type Ident Frequency Range Bearing (true) Bearing (mag) Slope Elevation
25 Localiser BH 108.15 MHz 18 nm / 33 km 251.71° 252.81° - 144 ft / 44 m (AMSL)
25 Glidescope BH 108.15 MHz 10 nm / 19 km 251.71° 252.81° 3.00° 196 ft / 60 m (AMSL)